Regional Weather Roundup
Issued by NWS Charleston, SC

Home | Current Version | Previous Version | Text Only | Print | Product List | Glossary On
Versions: 1 2 3 4 5 6 7 8 9 10 11 12 13 14 15 16 17 18 19 20 21 22 23 24 25 26 27 28 29 30 31 32 33 34 35 36 37 38 39 40 41 42 43 44 45 46 47 48 49 50
000
ASUS42 KCHS 250112
RWRCHS

REGIONAL WEATHER ROUNDUP
NATIONAL WEATHER SERVICE CHARLESTON SC
900 PM EDT SAT JUN 24 2017

NOTE: "FAIR" INDICATES FEW OR NO CLOUDS BELOW 12,000 FEET WITH NO
SIGNIFICANT WEATHER AND/OR OBSTRUCTIONS TO VISIBILITY.

NOT ALL STATIONS ARE QUALITY CONTROLLED. USE DATA WITH CAUTION...
ESPECIALLY DEWPOINT OBSERVATIONS.

SCZ027-030-031-034>040-042>050-250200-
...SOUTHEAST SOUTH CAROLINA...

CITY           SKY/WX    TMP DP  RH WIND       PRES   REMARKS
N CHARLESTON   PTCLDY    83  75  77 SW7       30.00R HX  90
WATERFRONT PRK   N/A     83  77  81 SW10      29.96S HX  92
JOHNS ISLAND   CLOUDY    82  77  83 S10       30.00R HX  91
PINOPOLIS        N/A     77  73  88 W5        29.93R
MONCKS CORNER  MOCLDY    75  72  88 CALM      30.01R
SUMMERVILLE    MOCLDY    77  72  83 W3        30.02R
BEAUFORT MCAS  MOCLDY    85  74  69 NW3       30.01R HX  92
BEAUFORT ARPT  FAIR      82  77  83 S8        30.01R HX  91
HILTON HEAD IS CLEAR     84  77  79 VRB7G15   30.02R HX  94
WALTERBORO     CLOUDY    79  72  78 NW5       30.02R
ALLENDALE      FAIR      75  73  94 CALM      30.01R

...SOUTHERN MIDLANDS AND PEE DEE...

CITY           SKY/WX    TMP DP  RH WIND       PRES   REMARKS
GEORGETOWN     CLOUDY    81  77  89 W7        30.00R
KINGSTREE      FAIR      73  72  94 CALM      29.99R
ORANGEBURG     CLOUDY    76  73  91 W8        30.01R
BARNWELL       FAIR      75  75 100 CALM      30.02R
AIKEN          MOCLDY    73  73 100 SW6       30.06R
MANNING        FAIR      75  75 100 SW3       30.01R
COLUMBIA       CLOUDY    77  74  90 S5        29.99R
SUMTER         CLOUDY    75  73  91 SW9       29.97R
FLORENCE       MOCLDY    79  74  84 SW7       29.99R
MYRTLE BEACH   NOT AVBL
N MYRTLE BEACH TSTM      77  75  93 SW7       30.00R FOG

$$

GAZ063-065-086>088-099>101-113>116-118-119-134>141-150-250200-
...SOUTHEAST GEORGIA...

CITY           SKY/WX    TMP DP  RH WIND       PRES   REMARKS
SAVANNAH ARPT  PTCLDY    85  70  60 NW8       30.01R
HUNTER AAF     CLEAR     84  78  81 S6        29.99R HX  94
FORT STEWART   CLEAR     86  71  60 CALM      29.99R HX  91
STATESBORO     MOCLDY    80  74  82 W6        30.03R
SYLVANIA       MOCLDY    78  75  91 NW3       30.03R
CLAXTON        FAIR      79  73  83 CALM      30.02R

...CSRA...CENTRAL AND FAR SOUTHEAST GEORGIA...

CITY           SKY/WX    TMP DP  RH WIND       PRES   REMARKS
THOMSON        CLOUDY    78  74  90 NE3       30.09R
AUGUSTA-BUSH   CLOUDY    79  75  87 N6        30.01R
AUGUSTA-DANIEL PTCLDY    79  73  82 W3        30.04R
SWAINSBORO     MOCLDY    75  75 100 CALM      30.03R
VIDALIA        MOCLDY    81  75  83 CALM      30.03R
EASTMAN        CLOUDY    81  68  64 N3        30.06R
HAZLEHURST       N/A     83  77  81 CALM      30.02R HX  92
ALMA           CLEAR     83  74  74 CALM      30.02R
WAYCROSS       CLEAR     87  78  73 CALM      30.02R HX 100
JESUP          FAIR      82  70  65 CALM      30.02R
BAXLEY         FAIR      84  79  84 CALM      30.02R HX  96
BRUNSWICK      CLEAR     84  77  79 S10       30.03R HX  94
SAINT SIMONS   CLEAR     84  77  79 S13G21    30.02R HX  94

$$

SCZ027-028-034-036>038-045-046-048>050-GAZ119-141-250200-
...LAKE AND SUPPLEMENTAL COASTAL OBSERVATIONS...

STATION/POSITION TIME  TEMP    WIND        PRES    WAVE   SWELL
                       AIR SEA DIR/SP/G            HT/PER HT/PER/DIR
                 (UTC) (F)     (DEG/KT/KT) (MB)    (FT/S) (FT/S/D)
WINYAH BAY       2345   83     210/ 14     1014.0
LAKE MURRAY      0020   78     250/  7/  9 1014.6S
ACE BASIN NERRS  2345   85     180/  2     1015.0
FORT PULASKI     0048   83 84  210/  8/ 15 1016.4R
SAPELO ISLAND    0000   85     170/ 12     1016.0

$$

ANZ835-935-AMZ111-154-330-350-352-354-370-450-454-472-250200-
...C-MAN AND BUOY OBSERVATIONS...

STATION/POSITION TIME  TEMP    WIND        PRES    WAVE   SWELL
                       AIR SEA DIR/SP/G            HT/PER HT/PER/DIR
                 (UTC) (F)     (DEG/KT/KT) (MB)    (FT/S) (FT/S/D)
BUOY 41004       0050   81     190/ 19/ 25 1015.7R   4/ 9   2/140/ 9
BUOY 41008       0050   81 82  170/ 16/ 19 1015.9R   3/ 3   2/100/ 8
FOLLY BEACH CMAN 0000   83     190/ 17/ 20 1015.6F
CAPERS NEARSHORE 0008   86 83  210/ 16/ 21 1014.5F
FRIPP NEARSHORE  0008   83 83  190/ 17/ 21 1014.1F


STATION/POSITION TIME  TEMP    WIND        PRES    WAVE   SWELL
                       AIR SEA DIR/SP/G            HT/PER HT/PER/DIR
                 (UTC) (F)     (DEG/KT/KT) (MB)    (FT/S) (FT/S/D)
5E ST. MARYS GA  0030      80                N/A     3/ 8
FRYING PAN BUOY  0050   81 81  200/ 19/ 23 1015.3S   5/ 5   2/150/ 9
BUOY 41025       0050   81 80  220/ 19/ 23 1015.0R   6/ 7   2/170/12
CAPE LOOKOUT NC  0000   80     210/ 16/ 21 1014.5R
BUOY 41002       2350   81 81  210/ 14/ 17 1019.1    4/ 6   2/ 90/ 9
BUOY 41010       0050          160/ 12/ 16 1019.0R   4/ 9   2/140/ 9
ST AUGUSTINE FL  0100   80 78  170/ 11/ 12 1017.4R


$$




USA.gov is the U.S. government's official web portal to all federal, state and local government web resources and services.